DELTA 1 DEB, 10756

Orbit data source: Space-Track

DELTA 1 DEB, 10756 is space debris in SSO originally from a launch on Thu, 29 Jul 1976 UTC launched from the Air Force Western Test Range (AFWTR). Debris objects in space refer to the collection of defunct objects orbiting the Earth. Examples of debris include non-operational satellites, rocket bodies, and fragments generated from explosions, collisions, or faulty payload assembly.

Loading next visibility...
Identifier
10756, 1976-077BD
Orbit
SSO
Country
Flag of USUS
Related business
Manufacturer
Unknown
Mission
Spacecraft
Bus & Motor
Unknown
Mass
Unknown
Launch date (UTC)
1976-07-29 (50 years ago)
Launch vehicle
Unknown
Launch site
Air Force Western Test Range (AFWTR)
Object type
Payload
Rocket body
Debris
Shape & HBR
Unknown shape, 1.1 m
Radar Cross Section
Medium (>0.1 m² and <1 m²)

Expand to show TLE details & history
Last TLE update: 11 hours ago

TLE from 11 hours ago
0 DELTA 1 DEB
1 10756U 76077BD  26255.98752806  .00000960  00000-0  69554-2 0  9997
2 10756 101.0687  91.0672 0165246 287.7163  70.5929 12.42049983250840
Epoch: 2026-09-12T23:42Z
TLE epoch observation values (Epoch: 2026-09-12T23:42:02.424Z)
Latitude
0.00001°
Longitude
103.56845°
Altitude
1,459.19 km
Speed
7.152 km/s
True Right ascension
06h 04m 16s
True Declination
0° 00' 00"
Sunlit
Object was in daylight at epoch
Visualization orbit readout
Latitude
Unknown
Longitude
Unknown
Altitude
Unknown
Speed
Unknown
Apparent Right ascension
Unknown
Apparent Declination
Unknown
Sunlit
N/A
Visualization observer readout
Local Sidereal Time
03:06:30
Azimuth
Unknown
Elevation
Unknown
Doppler factor
Unknown
Orbital elements
Apogee altitude
1,625.55 km
Perigee altitude
1,365.335 km
Semi-major axis
7,873.58 km
Eccentricity
0.01652
Inclination
101.0687°
RAAN
91.0672°
Arg. of periapsis
287.7163°
True anomaly
72.39093°
Mean anomaly
70.5929°
Eccentric anomaly
71.49071°
Mean motion
3.1066 °/min
Orbital period
115.88 mins
BSTAR
0.0069554
Loading maneuver chart data...
Computing Atmospheric mass density...
Loading historical data...
Loading historical data...
Loading historical data...
Loading historical data...
Loading historical data...
Loading historical data...
Loading historical data...

Documentation

Showing up to 5 results
|